Wind_Speed
40 42 44 46 48 48 47 44 39 37 41 57 56 60 62 60 53 53 52 44 39 33 35 42 40 36 29 32 33 32 34 34 35 32 32 31 30 29 29 29 28 26 27
40 40 42 42 43 45 47 48 46 46 42 38 48 52 56 58 57 59 50 47 44 43 44 50 42 34 32 36 33 35 34 35 35 35 33 32 29 30 30 29 30 27 26
40 40 41 42 43 44 44 45 46 47 48 47 43 44 44 47 51 59 57 51 52 52 47 47 43 38 36 36 33 36 34 34 33 34 30 31 29 30 30 28 30 28 25
42 41 45 44 44 44 46 46 47 47 46 48 49 47 47 47 45 48 47 49 47 47 50 47 40 39 37 33 34 35 35 32 31 30 29 29 29 30 28 27 30 27 27
45 43 44 43 43 46 48 49 50 50 49 49 48 48 49 50 49 45 44 39 37 38 39 40 38 36 35 32 32 35 32 31 32 30 29 28 28 31 29 28 29 29 27
40 42 45 47 47 47 48 51 53 53 53 54 52 50 50 51 48 47 47 41 37 39 40 37 36 36 33 30 34 32 31 32 30 30 25 28 28 29 29 30 28 30 27
43 45 46 49 50 48 48 48 51 55 57 57 56 53 51 47 45 46 44 44 45 44 40 36 36 34 31 32 34 31 30 28 28 28 27 28 28 29 28 29 29 28 26
49 49 49 49 49 50 49 49 50 53 55 61 60 58 55 50 46 44 44 45 46 44 40 38 36 32 29 32 31 30 27 27 25 27 26 28 30 31 29 29 29 26 27
57 58 55 55 54 53 52 54 57 57 58 60 66 63 59 55 49 45 44 45 44 41 38 36 34 32 29 30 30 28 23 26 25 26 27 29 31 32 30 31 28 27 25
63 62 64 62 61 59 59 59 61 61 60 62 66 70 64 58 52 48 44 47 44 41 39 36 36 32 30 29 28 23 23 24 25 27 28 30 31 32 33 32 33 34 30
60 62 68 70 67 64 63 62 63 59 58 54 54 68 70 62 54 51 48 49 45 43 39 37 36 28 29 26 24 22 23 22 24 26 29 28 30 31 33 28 22 17 18
51 55 59 64 63 63 64 58 50 48 46 50 59 51 72 66 58 53 51 50 49 44 40 35 33 29 27 24 22 22 20 22 24 26 26 29 30 28 23 17 13 12 14
54 56 58 59 55 51 48 49 50 48 39 39 43 46 65 72 62 56 53 51 50 46 41 36 32 29 24 22 21 18 21 21 23 24 27 28 24 20 17 17 14 15 16
36 36 39 43 45 45 46 49 37 38 33 34 36 36 59 74 62 57 53 52 53 51 42 37 28 25 23 21 18 18 19 21 22 23 21 17 17 17 17 17 18 20 19
33 40 43 40 38 40 35 34 45 40 40 36 36 40 63 69 60 56 53 56 55 36 33 29 27 23 21 18 17 17 18 20 20 19 16 15 15 15 15 14 17 17 19
18 19 15 15 10 17 16 30 31 36 39 42 39 57 69 66 63 59 55 48 43 39 31 28 24 21 19 17 15 15 18 18 17 15 13 13 14 13 13 15 17 12 16
26 16 8 4 13 5 23 29 34 36 40 47 59 67 70 66 60 55 48 42 33 29 26 23 22 18 16 15 14 17 16 16 14 12 10 9 8 6 6 3 12 11 11
9 7 10 13 6 10 20 24 33 43 51 63 67 65 66 49 52 47 41 32 27 24 24 23 18 16 16 15 17 17 15 14 11 10 10 5 3 1 1 3 6 9 11
18 25 31 32 38 37 50 56 55 58 64 70 55 50 44 50 42 38 33 29 27 26 23 20 19 17 15 16 17 15 14 13 12 10 9 8 6 4 4 4 5 7 9
33 36 27 29 35 41 38 41 58 52 56 55 40 41 38 38 35 31 28 26 24 22 21 21 18 16 16 17 15 14 14 12 14 11 8 7 7 6 7 8 8 7 8
30 22 23 27 30 33 35 32 38 40 36 35 32 32 33 26 25 23 24 22 25 24 21 18 17 16 17 15 14 14 13 14 14 12 10 8 7 6 7 8 8 8 9
28 23 23 24 25 27 27 28 30 28 28 29 27 26 25 26 20 21 23 25 23 20 18 18 17 17 17 15 16 14 13 15 15 12 11 10 9 8 8 8 9 9 9
24 24 24 25 22 24 27 28 26 24 23 24 25 23 18 18 20 21 23 23 20 18 18 17 17 17 16 15 15 14 13 14 15 13 11 9 9 9 8 7 6 7 9
27 30 13 28 23 24 24 25 25 22 19 21 24 25 27 28 24 22 19 17 18 18 17 17 17 16 16 16 14 12 13 14 13 14 13 12 11 9 7 6 6 6 7
24 24 22 20 27 28 26 27 26 26 25 26 28 26 24 21 20 19 19 19 19 18 18 17 16 16 14 13 11 11 12 12 11 10 10 9 8 6 6 6 7 4 6
26 25 29 24 26 25 24 23 23 22 21 20 22 21 20 20 19 18 18 17 17 18 18 18 17 16 13 10 11 11 11 11 10 8 7 5 5 6 7 7 7 10 12
Wind_Direction
249 249 249 248 249 251 254 252 252 251 241 246 251 252 261 252 259 255 261 255 251 254 261 273 278 277 271 284 288 298 297 292 291 297 296 297 298 308 310 305 307 306 301
256 253 250 249 250 252 253 253 251 252 250 248 241 242 245 249 250 260 245 256 262 261 261 268 277 265 266 274 285 291 289 287 291 290 294 295 298 306 306 303 305 307 302
257 258 254 251 249 248 250 252 251 251 251 246 241 244 244 244 245 246 248 253 255 255 257 265 270 266 268 266 282 282 281 285 287 283 289 288 298 303 304 300 299 304 298
259 252 254 251 248 248 249 247 246 247 245 246 247 246 244 242 243 244 248 250 251 255 257 258 253 268 268 266 274 274 279 282 283 281 283 287 295 299 300 297 296 299 297
261 252 249 248 248 248 247 245 244 243 243 244 242 242 242 239 238 239 242 243 243 244 240 248 254 257 259 265 269 269 276 280 275 277 279 289 296 300 300 296 294 295 292
261 262 255 247 248 246 245 245 245 243 241 240 241 237 237 236 236 237 238 239 236 234 239 242 246 250 255 262 262 265 271 272 273 275 283 290 296 297 294 294 293 292 292
266 263 261 258 254 251 250 249 248 246 242 240 239 240 237 234 233 234 235 233 231 230 237 239 243 249 247 253 255 263 266 268 270 278 284 293 296 292 293 290 291 290 288
261 264 267 265 259 257 255 254 251 249 247 241 235 235 236 234 228 228 229 228 229 230 231 234 240 239 242 250 256 259 262 266 272 279 290 294 293 292 291 285 288 288 294
265 264 264 265 263 259 257 258 259 257 252 244 237 230 231 229 227 223 224 225 227 231 233 234 237 236 243 249 254 256 264 269 274 285 292 293 291 291 287 286 283 281 287
265 264 265 265 266 266 266 262 260 259 257 255 236 230 226 225 221 219 220 222 222 226 228 231 231 230 242 249 252 259 264 268 279 288 292 291 289 288 287 287 280 276 272
265 262 262 265 266 267 262 260 259 258 251 242 238 228 219 219 214 215 215 218 219 223 224 227 233 231 242 248 255 259 264 276 285 290 292 287 288 289 290 286 280 265 241
265 263 263 262 262 258 258 259 256 257 254 248 234 228 212 207 208 207 212 216 217 219 220 224 228 234 242 249 251 258 272 281 287 292 285 286 284 284 284 277 261 258 238
264 263 263 264 265 263 256 256 255 253 248 231 222 225 206 197 199 201 208 213 217 217 213 220 225 232 242 244 251 266 276 281 289 286 286 286 281 276 275 267 259 252 246
270 266 264 263 261 260 256 258 244 235 237 220 218 224 200 191 191 197 205 212 215 218 201 214 220 230 235 241 252 268 277 284 287 287 285 281 277 273 270 267 264 261 255
269 266 266 267 267 262 254 242 232 225 217 220 208 210 189 181 186 193 204 212 214 196 194 209 219 221 229 239 258 267 274 281 283 282 280 277 274 269 267 264 258 254 241
284 299 314 321 257 256 263 219 207 193 193 195 191 176 173 175 184 193 203 210 184 184 194 206 213 219 230 246 254 262 272 274 280 272 269 268 269 270 269 270 249 240 221
358 2 355 246 323 54 187 211 191 189 181 170 164 166 169 177 185 192 192 184 184 185 196 202 208 221 233 240 246 258 263 273 268 260 259 253 276 270 256 340 184 206 224
25 59 62 54 65 146 156 167 174 167 163 159 160 162 167 170 184 195 170 173 178 187 196 202 208 223 231 235 243 252 258 261 250 248 241 229 221 196 282 257 229 229 234
98 100 106 112 117 127 137 140 143 149 150 153 159 174 139 154 160 168 163 170 180 190 196 202 215 222 227 233 242 244 252 245 231 232 226 216 218 229 240 247 244 239 238
121 125 96 106 111 124 128 133 135 151 165 161 121 135 141 151 156 158 168 172 184 196 199 208 213 219 225 232 234 239 241 233 219 221 220 223 226 232 242 252 258 255 253
123 119 93 104 111 112 112 115 113 126 121 131 139 145 146 149 153 157 170 186 195 199 204 209 213 218 224 223 231 234 232 221 212 217 216 220 219 226 234 238 241 245 248
122 116 116 112 116 122 121 120 120 128 134 139 142 142 146 160 176 186 190 192 192 196 205 212 218 217 219 223 225 225 217 209 208 207 209 213 217 231 236 241 241 245 255
132 125 117 121 123 134 134 135 139 144 144 147 148 147 160 165 172 180 183 186 191 202 211 212 210 212 221 231 227 217 214 208 207 208 209 225 238 244 245 258 252 268 272
130 123 157 120 126 137 135 135 137 140 145 159 166 164 165 174 175 180 185 190 200 203 199 203 205 212 222 219 219 210 209 209 208 218 228 239 238 238 249 242 262 271 274
113 133 141 151 140 136 137 136 137 139 141 146 155 160 167 172 175 182 189 192 192 196 194 199 207 209 210 210 207 210 210 203 207 214 216 219 232 244 254 265 269 270 306
130 124 140 143 134 139 142 143 142 143 147 152 159 166 171 172 177 182 184 191 186 185 194 199 199 199 194 198 206 209 206 199 200 204 207 222 247 259 271 275 270 280 304
Height
5668 5670 5672 5675 5678 5680 5684 5687 5691 5698 5703 5710 5717 5723 5728 5737 5745 5752 5758 5763 5766 5769 5773 5779 5783 5783 5784 5780 5782 5777 5776 5776 5777 5775 5775 5773 5769 5765 5765 5762 5760 5757 5754
5655 5658 5661 5664 5666 5668 5672 5676 5680 5685 5691 5695 5699 5707 5716 5722 5730 5740 5746 5750 5754 5759 5766 5769 5771 5772 5774 5773 5772 5770 5769 5767 5770 5768 5767 5765 5761 5759 5758 5755 5752 5750 5748
5644 5646 5649 5653 5656 5659 5661 5665 5669 5673 5678 5686 5691 5697 5703 5708 5715 5725 5734 5740 5745 5750 5755 5759 5762 5760 5764 5764 5763 5762 5760 5761 5761 5761 5760 5758 5755 5752 5750 5749 5746 5743 5742
5631 5636 5638 5641 5643 5646 5650 5654 5658 5662 5668 5674 5678 5685 5692 5698 5703 5711 5719 5726 5733 5739 5744 5748 5749 5751 5752 5753 5753 5753 5751 5751 5752 5752 5752 5751 5748 5746 5744 5742 5739 5736 5734
5618 5624 5628 5629 5631 5635 5638 5642 5647 5652 5656 5661 5666 5672 5680 5686 5694 5700 5708 5715 5721 5726 5732 5736 5738 5740 5742 5744 5745 5744 5743 5744 5744 5744 5742 5741 5739 5737 5735 5734 5731 5729 5728
5606 5609 5612 5616 5618 5621 5625 5630 5634 5639 5643 5648 5654 5660 5669 5676 5682 5690 5699 5704 5709 5715 5720 5726 5727 5729 5732 5735 5737 5735 5736 5738 5737 5737 5732 5733 5731 5729 5728 5727 5725 5722 5722
5594 5595 5598 5601 5604 5608 5612 5615 5618 5621 5627 5633 5640 5648 5656 5663 5671 5680 5687 5694 5699 5703 5709 5715 5716 5719 5723 5726 5728 5726 5728 5728 5728 5728 5724 5724 5723 5722 5722 5719 5717 5716 5715
5581 5582 5583 5584 5588 5591 5594 5598 5602 5604 5609 5615 5625 5633 5642 5652 5661 5669 5677 5684 5687 5692 5699 5704 5706 5710 5714 5718 5718 5719 5719 5721 5719 5719 5716 5715 5714 5714 5713 5712 5710 5708 5706
5567 5567 5569 5569 5570 5574 5577 5580 5581 5584 5590 5596 5604 5617 5627 5638 5649 5658 5667 5673 5677 5685 5690 5694 5697 5699 5706 5710 5711 5711 5714 5711 5710 5709 5708 5707 5706 5705 5704 5703 5701 5700 5699
5548 5548 5549 5550 5552 5555 5558 5559 5561 5564 5569 5575 5584 5596 5610 5623 5637 5648 5656 5663 5668 5677 5682 5685 5688 5692 5698 5702 5703 5704 5704 5704 5702 5701 5700 5699 5698 5697 5695 5694 5691 5691 5692
5527 5530 5529 5529 5532 5534 5535 5537 5539 5542 5546 5554 5563 5574 5591 5609 5625 5636 5645 5653 5660 5666 5673 5676 5681 5685 5691 5694 5696 5697 5697 5696 5694 5693 5692 5692 5691 5689 5686 5683 5682 5681 5682
5508 5509 5509 5509 5510 5511 5514 5517 5520 5523 5527 5532 5542 5554 5571 5592 5609 5624 5635 5644 5650 5658 5664 5668 5673 5677 5682 5687 5690 5689 5689 5688 5686 5686 5686 5684 5683 5681 5679 5678 5678 5678 5678
5490 5490 5488 5488 5492 5493 5495 5499 5502 5507 5511 5517 5526 5539 5553 5575 5596 5614 5623 5634 5642 5649 5654 5663 5667 5672 5678 5680 5681 5681 5682 5681 5680 5680 5679 5678 5675 5675 5674 5674 5673 5674 5674
5476 5474 5473 5473 5474 5475 5476 5481 5485 5493 5499 5507 5517 5528 5540 5562 5587 5604 5615 5625 5631 5637 5644 5655 5660 5667 5671 5673 5673 5676 5675 5674 5674 5674 5673 5671 5671 5670 5669 5669 5669 5669 5670
5464 5460 5458 5456 5456 5458 5461 5461 5467 5477 5487 5496 5506 5516 5532 5557 5582 5598 5608 5613 5622 5614 5633 5647 5655 5660 5663 5665 5668 5668 5668 5669 5670 5669 5668 5667 5666 5665 5665 5664 5664 5664 5665
5455 5451 5449 5449 5450 5451 5450 5451 5455 5463 5472 5485 5496 5513 5535 5557 5574 5587 5598 5601 5607 5623 5634 5643 5649 5652 5657 5659 5661 5663 5663 5665 5665 5664 5664 5664 5662 5661 5660 5659 5660 5660 5662
5451 5447 5441 5436 5432 5430 5435 5442 5451 5460 5471 5483 5498 5516 5536 5555 5574 5585 5595 5604 5612 5621 5631 5638 5643 5647 5651 5654 5656 5658 5660 5661 5661 5660 5661 5661 5659 5658 5658 5657 5657 5660 5662
5452 5448 5441 5434 5431 5430 5434 5444 5455 5465 5476 5488 5504 5523 5537 5550 5572 5584 5589 5600 5612 5620 5627 5632 5637 5642 5646 5649 5652 5654 5656 5656 5657 5658 5658 5658 5658 5658 5658 5658 5659 5660 5661
5459 5460 5455 5451 5451 5453 5453 5459 5470 5478 5491 5501 5516 5526 5524 5551 5570 5583 5590 5604 5611 5617 5623 5629 5634 5638 5642 5645 5647 5650 5651 5652 5653 5654 5655 5655 5655 5656 5657 5657 5658 5658 5659
5470 5470 5471 5474 5475 5480 5484 5490 5494 5493 5495 5509 5523 5537 5551 5565 5576 5584 5595 5602 5607 5613 5620 5626 5630 5634 5638 5641 5644 5646 5647 5648 5650 5651 5651 5652 5653 5653 5654 5655 5655 5656 5657
5480 5480 5478 5478 5489 5485 5496 5500 5503 5513 5515 5526 5539 5550 5560 5568 5575 5584 5592 5598 5604 5611 5617 5622 5626 5631 5634 5637 5639 5642 5643 5644 5646 5647 5648 5649 5650 5651 5652 5652 5653 5654 5654
5490 5493 5495 5498 5502 5505 5508 5512 5518 5525 5533 5541 5547 5554 5563 5571 5577 5585 5593 5599 5605 5610 5614 5618 5623 5627 5629 5633 5635 5637 5640 5641 5642 5644 5646 5647 5648 5650 5650 5651 5651 5652 5652
5489 5501 5506 5507 5511 5515 5519 5524 5530 5535 5540 5546 5553 5560 5566 5573 5581 5588 5593 5597 5603 5607 5612 5616 5620 5624 5627 5631 5633 5634 5636 5638 5639 5641 5644 5645 5646 5647 5648 5649 5649 5649 5649
5504 5508 5510 5514 5518 5522 5526 5530 5535 5540 5543 5549 5556 5563 5569 5576 5582 5587 5592 5597 5602 5607 5611 5615 5618 5621 5624 5627 5629 5631 5633 5635 5637 5639 5640 5642 5643 5645 5645 5646 5647 5647 5647
5508 5514 5519 5521 5526 5531 5535 5539 5543 5546 5550 5554 5560 5566 5572 5578 5583 5588 5592 5597 5602 5605 5609 5613 5616 5619 5621 5623 5625 5628 5630 5633 5635 5636 5637 5639 5641 5642 5643 5644 5644 5645 5645
5516 5520 5523 5528 5532 5535 5540 5544 5548 5552 5557 5561 5566 5570 5575 5579 5584 5589 5593 5597 5601 5605 5608 5611 5613 5616 5618 5621 5623 5625 5628 5630 5632 5634 5636 5638 5639 5640 5641 5641 5641 5642 5642